Flag for Colombia Weather past 2 weeks in Manizales, Colombia

Now
81 °F

Scattered clouds.


Feels Like: 83 °F
Forecast: 58 / 75 °F
Wind: 5 mph from North

Location: Pereira / Matecana

Current Time: Apr 28, 2015 at 2:50:40 PM

Latest Report: Apr 28, 2015 at 2:00 PM


Visibility: N/A

Pressure: 29.92 "Hg

Humidity: 62%

Dew point: 66 °F

Location of ManizalesLocation

Historic Weather in Manizales — Graph

°F

Manizales temperature yesterday

Maximum temperature yesterday: 84 °F (at 12:00 PM)
Minimum temperature yesterday: 66 °F (at 5:00 AM)
Average temperature yesterday: 76 °F

Past Weeks' High & Low Weather Summary

 TemperatureHumidityPressure
High86 °F (Apr 26, 3:00 PM)100% (Apr 14, 5:00 AM)30.18 "Hg (Apr 14, 5:00 AM)
Low63 °F (Apr 15, 7:00 AM)51% (Apr 26, 1:00 PM)29.87 "Hg (Apr 27, 4:00 PM)
Average72 °F79%30.03 "Hg
* Reported Apr 13 1:00 PM — Apr 28 1:00 PM, Manizales, Weather by CustomWeather, © 2015

Note: Actual official high and low records may vary slightly from our data, if they occured in-between our weather recording intervals... More about our weather records

Advertising

Manizales weather history for previous 24 hours

 ConditionsComfort  
Time TempWeatherWind HumidityBarometerVisibility
1:00 PM
Tue, Apr 28
82 °FScattered clouds.3 mph58%29.97 "HgN/A
12:00 PM79 °FScattered clouds.2 mph70%30.00 "HgN/A
11:00 AM81 °FScattered clouds.7 mph70%30.03 "HgN/A
10:00 AM77 °FScattered clouds.6 mph74%30.06 "HgN/A
9:00 AM75 °FScattered clouds.8 mph78%30.04 "HgN/A
8:00 AM72 °FScattered clouds.3 mph88%30.03 "HgN/A
7:00 AM70 °FScattered clouds.7 mph83%30.00 "HgN/A
6:00 AM68 °FScattered clouds.6 mph83%29.98 "HgN/A
5:00 AM68 °FPassing clouds.3 mph88%29.97 "HgN/A
1:00 AM70 °FPassing clouds.5 mph78%29.98 "HgN/A
12:00 AM70 °FPassing clouds.7 mph78%29.99 "HgN/A
11:00 PM
Mon, Apr 27
72 °FPassing clouds.9 mph78%29.99 "HgN/A
10:00 PM73 °FPassing clouds.9 mph74%30.00 "HgN/A
9:00 PM73 °FPassing clouds.6 mph74%29.97 "HgN/A
8:00 PM75 °FPassing clouds.6 mph69%29.94 "HgN/A
7:00 PM79 °FPassing clouds.3 mph61%29.93 "HgN/A
6:00 PM79 °FScattered clouds.3 mph58%29.90 "HgN/A
5:00 PM81 °FScattered clouds.7 mph54%29.88 "HgN/A
4:00 PM84 °FScattered clouds.7 mph51%29.87 "HgN/A
3:00 PM84 °FScattered clouds.5 mph51%29.88 "HgN/A
2:00 PM82 °FScattered clouds.5 mph62%29.91 "HgN/A
Weather by CustomWeather, © 2015

See weather overviewHow to use our weather pages